CW9659 Weather Reports


time (UTC)temp
C
wind
direction
speed
KPH
gust
KPH
rain 1hr
cm
rain 24hr
cm
rain mn
cm
humidity
%
barometer
mb
20260906120903 20 104 0.0 0.0 0.00 0.66 0.00 57 1011.9
20260906120404 20 104 0.0 0.0 0.00 0.66 0.00 58 1011.8
20260906115904 20 104 0.0 0.0 0.00 0.66 0.00 58 1011.7
20260906115403 20 104 0.0 0.0 0.00 0.66 0.00 58 1011.7
20260906114903 20 104 0.0 0.0 0.00 0.66 0.00 58 1011.6
20260906113903 20 104 0.0 0.0 0.00 0.66 0.00 59 1011.5
20260906112404 20 104 0.0 0.0 0.00 0.66 0.00 60 1011.5
20260906110903 20 104 0.0 0.0 0.00 0.66 0.00 61 1011.3
20260906110403 20 104 0.0 0.0 0.00 0.66 0.00 60 1011.3
20260906105903 20 104 0.0 0.0 0.00 0.66 0.00 60 1011.3
20260906104904 20 104 0.0 0.0 0.00 0.66 0.00 60 1011.1
20260906104403 20 104 0.0 0.0 0.00 0.66 0.00 60 1011.1
20260906103904 20 104 0.0 0.0 0.00 0.66 0.00 60 1011.0
20260906103404 20 104 0.0 0.0 0.00 0.66 0.00 60 1011.1
20260906102404 20 104 0.0 0.0 0.00 0.66 0.00 61 1011.0
20260906101904 20 104 0.0 0.0 0.00 0.66 0.00 61 1011.0
20260906101403 20 104 0.0 0.0 0.00 0.66 0.00 61 1010.9
20260906100904 20 104 0.0 0.0 0.00 0.66 0.00 61 1010.9
20260906100404 20 104 0.0 0.0 0.00 0.66 0.00 61 1011.0
20260906095904 20 104 0.0 0.0 0.00 0.66 0.00 61 1011.0
20260906094903 20 104 0.0 0.0 0.00 0.66 0.00 61 1010.9
20260906094404 20 104 0.0 0.0 0.00 0.66 0.00 61 1011.0
20260906093903 20 105 0.0 0.0 0.00 0.66 0.00 61 1010.9
20260906093403 20 105 0.0 0.0 0.00 0.66 0.00 61 1010.9
20260906092904 20 105 0.0 1.6 0.00 0.66 0.00 61 1010.9
20260906092403 20 105 0.0 1.6 0.00 0.66 0.00 61 1011.0
20260906091903 20 105 0.0 0.0 0.00 0.66 0.00 61 1010.9
20260906091403 20 105 0.0 0.0 0.00 0.66 0.00 61 1010.8
20260906090903 20 105 0.0 0.0 0.00 0.66 0.00 61 1010.7
20260906090403 20 104 0.0 1.6 0.00 0.66 0.00 61 1010.7
20260906085904 20 101 0.0 0.0 0.00 0.66 0.00 61 1010.7
20260906085404 20 101 0.0 1.6 0.00 0.66 0.00 61 1010.7
20260906084903 20 101 0.0 0.0 0.00 0.66 0.00 61 1010.6
20260906084403 20 101 0.0 0.0 0.00 0.66 0.00 62 1010.6
20260906083904 20 101 0.0 0.0 0.00 0.66 0.00 62 1010.5
20260906083403 20 101 0.0 0.0 0.00 0.66 0.00 63 1010.4
20260906082904 20 101 0.0 0.0 0.00 0.66 0.00 63 1010.4
20260906082404 20 101 0.0 0.0 0.00 0.66 0.00 63 1010.4
20260906081903 20 101 0.0 1.6 0.00 0.66 0.00 62 1010.3
20260906081404 20 101 0.0 0.0 0.00 0.66 0.00 63 1010.3
20260906080903 20 101 0.0 0.0 0.00 0.66 0.00 63 1010.2
20260906080404 20 101 0.0 0.0 0.00 0.66 0.00 65 1010.2
20260906075903 20 101 0.0 0.0 0.00 0.66 0.00 65 1010.2
20260906075403 20 101 0.0 0.0 0.00 0.66 0.00 65 1010.2
20260906074904 20 101 0.0 0.0 0.00 0.66 0.00 65 1010.2
20260906073904 20 101 0.0 1.6 0.00 0.66 0.00 65 1010.3
20260906073403 20 101 0.0 0.0 0.00 0.66 0.00 66 1010.2
20260906072904 20 101 0.0 0.0 0.00 0.66 0.00 67 1010.2
20260906072404 21 101 0.0 1.6 0.00 0.66 0.00 67 1010.2
20260906071903 21 101 0.0 1.6 0.00 0.66 0.00 67 1010.1
20260906071403 21 101 0.0 1.6 0.00 0.66 0.00 67 1010.2
20260906070903 21 101 0.0 0.0 0.00 0.66 0.00 69 1010.2
20260906070403 21 101 0.0 0.0 0.00 0.66 0.00 70 1010.1
20260906065903 21 101 0.0 0.0 0.00 0.66 0.00 69 1010.3
20260906065404 21 101 0.0 0.0 0.00 0.66 0.00 71 1010.2
20260906064903 21 101 0.0 0.0 0.00 0.66 0.00 71 1010.2
20260906064404 21 101 0.0 0.0 0.00 0.66 0.00 71 1010.1
20260906063404 21 102 0.0 4.8 0.00 0.66 0.00 73 1010.2
20260906062903 21 106 1.6 3.2 0.00 0.66 0.00 74 1010.2
20260906062404 21 127 0.0 1.6 0.00 0.66 0.00 75 1010.2
20260906061903 21 132 1.6 3.2 0.00 0.66 0.00 75 1010.2
20260906061404 21 108 0.0 1.6 0.00 0.66 0.00 76 1010.1
20260906060903 21 105 0.0 1.6 0.00 0.66 0.00 76 1010.1
20260906055903 21 105 0.0 0.0 0.00 0.66 0.00 79 1010.0
20260906055403 21 105 0.0 1.6 0.00 0.66 0.00 80 1010.0
20260906054904 21 105 0.0 1.6 0.00 0.66 0.00 80 1010.0
20260906054403 21 105 0.0 1.6 0.00 0.66 0.00 82 1010.1
20260906053903 21 105 0.0 0.0 0.00 0.66 0.00 83 1010.0
20260906053404 22 105 0.0 1.6 0.00 0.66 0.00 83 1010.0
20260906052903 22 113 0.0 0.0 0.00 0.66 0.00 84 1010.0
20260906052404 22 113 0.0 1.6 0.00 0.66 0.00 85 1010.0
20260906051903 22 113 1.6 4.8 0.00 0.66 0.00 85 1010.0
20260906051404 22 116 3.2 4.8 0.00 0.66 0.00 85 1010.1
20260906050903 22 111 3.2 4.8 0.00 0.66 0.00 85 1010.2
20260906050403 22 122 3.2 4.8 0.00 0.66 0.00 85 1010.2
20260906045904 22 122 1.6 4.8 0.00 0.66 0.66 85 1010.3
20260906045403 21 118 3.2 4.8 0.00 0.66 0.66 84 1010.5
20260906044904 21 104 0.0 1.6 0.00 0.66 0.66 83 1010.6
20260906042904 22 121 1.6 4.8 0.10 0.66 0.66 77 1011.1
20260906042403 22 115 3.2 4.8 0.20 0.66 0.66 79 1011.3
20260906041904 22 126 0.0 1.6 0.23 0.66 0.66 80 1011.5
20260906041403 22 129 0.0 1.6 0.23 0.66 0.66 80 1011.5
20260906040404 22 167 0.0 1.6 0.23 0.66 0.66 82 1011.8
20260906035904 22 189 1.6 3.2 0.25 0.66 0.66 82 1012.1
20260906034904 22 166 1.6 4.8 0.33 0.66 0.66 82 1012.4
20260906024404 27 294 3.2 8.0 0.08 0.08 0.08 80 1011.4
20260906023904 27 0 3.2 19.3 0.00 0.00 0.00 77 1011.2
20260906023403 28 5 4.8 16.1 0.00 0.00 0.00 75 1010.8
20260906022903 28 22 1.6 4.8 0.00 0.00 0.00 77 1010.4
20260906022404 28 333 1.6 4.8 0.00 0.00 0.00 75 1010.4
20260906021403 29 120 0.0 0.0 0.00 0.00 0.00 72 1009.8
20260906020904 29 117 0.0 1.6 0.00 0.00 0.00 69 1009.3
20260906020404 29 112 0.0 1.6 0.00 0.00 0.00 70 1009.0
20260906015904 29 132 0.0 3.2 0.00 0.00 0.00 71 1009.0
20260906015404 29 113 1.6 3.2 0.00 0.00 0.00 71 1009.1
20260906014403 29 168 0.0 0.0 0.00 0.00 0.00 69 1009.6
20260906013403 30 127 0.0 3.2 0.00 0.00 0.00 69 1008.5
20260906012404 30 129 0.0 1.6 0.00 0.00 0.00 68 1008.6
20260906011904 30 119 1.6 3.2 0.00 0.00 0.00 68 1008.7
20260906011404 30 119 3.2 4.8 0.00 0.00 0.00 67 1008.7
20260906010903 30 120 1.6 4.8 0.00 0.00 0.00 67 1008.8
20260906010403 30 127 3.2 4.8 0.00 0.00 0.00 67 1009.0
20260906005904 30 107 1.6 4.8 0.00 0.00 0.00 67 1009.0
20260906005403 30 122 0.0 1.6 0.00 0.00 0.00 66 1009.1
20260906004904 30 125 0.0 1.6 0.00 0.00 0.00 66 1009.0
20260906004404 31 126 0.0 1.6 0.00 0.00 0.00 65 1009.1
20260906003903 31 119 0.0 1.6 0.00 0.00 0.00 65 1009.0
20260906003403 31 138 0.0 1.6 0.00 0.00 0.00 64 1009.1
20260906002903 31 138 0.0 4.8 0.00 0.00 0.00 64 1009.2
20260906002403 31 124 3.2 4.8 0.00 0.00 0.00 64 1009.3
20260906001903 31 117 1.6 3.2 0.00 0.00 0.00 64 1009.3
20260906001403 31 122 0.0 3.2 0.00 0.00 0.00 65 1009.4
20260905234903 31 72 0.0 0.0 0.00 0.00 0.00 62 1009.4
20260905234404 31 72 0.0 0.0 0.00 0.00 0.00 61 1009.4
20260905233904 32 72 0.0 0.0 0.00 0.00 0.00 60 1009.3
20260905233404 32 72 0.0 0.0 0.00 0.00 0.00 60 1009.2
20260905232904 32 72 0.0 1.6 0.00 0.00 0.00 60 1009.2
20260905231904 32 72 0.0 0.0 0.00 0.00 0.00 60 1009.2
20260905231404 32 72 0.0 0.0 0.00 0.00 0.00 60 1009.1
20260905230904 32 72 0.0 0.0 0.00 0.00 0.00 61 1009.1
20260905230403 32 72 0.0 0.0 0.00 0.00 0.00 60 1009.0
20260905225904 32 72 0.0 0.0 0.00 0.00 0.00 60 1008.9
20260905225404 32 72 0.0 1.6 0.00 0.00 0.00 60 1008.9
20260905224903 32 72 0.0 0.0 0.00 0.00 0.00 58 1008.8
20260905224403 32 72 0.0 0.0 0.00 0.00 0.00 57 1009.0
20260905223903 32 72 0.0 0.0 0.00 0.00 0.00 57 1009.1
20260905223403 33 72 0.0 1.6 0.00 0.00 0.00 57 1009.1
20260905222904 33 72 0.0 1.6 0.00 0.00 0.00 55 1009.2
20260905222404 33 72 0.0 0.0 0.00 0.00 0.00 55 1009.0
20260905221903 33 72 0.0 0.0 0.00 0.00 0.00 54 1009.1
20260905221404 34 72 0.0 0.0 0.00 0.00 0.00 54 1009.1
20260905220903 35 72 0.0 0.0 0.00 0.00 0.00 53 1009.0
20260905220403 35 72 0.0 0.0 0.00 0.00 0.00 51 1009.0
20260905215903 35 72 0.0 0.0 0.00 0.00 0.00 50 1009.1
20260905215403 35 72 0.0 1.6 0.00 0.00 0.00 49 1009.1
20260905214404 36 172 0.0 1.6 0.00 0.00 0.00 48 1009.0
20260905213903 36 132 0.0 1.6 0.00 0.00 0.00 48 1009.0
20260905213403 36 182 0.0 3.2 0.00 0.00 0.00 48 1009.0
20260905212904 36 334 0.0 1.6 0.00 0.00 0.00 47 1009.1
20260905212404 36 356 0.0 1.6 0.00 0.00 0.00 47 1009.1
20260905211903 37 301 1.6 3.2 0.00 0.00 0.00 46 1009.2
20260905211403 37 350 0.0 3.2 0.00 0.00 0.00 45 1009.1
20260905210904 37 55 0.0 4.8 0.00 0.00 0.00 45 1009.1
20260905210403 37 60 1.6 4.8 0.00 0.00 0.00 44 1009.2
20260905205904 37 302 0.0 3.2 0.00 0.00 0.00 45 1009.3
20260905205403 37 311 1.6 3.2 0.00 0.00 0.00 45 1009.3
20260905204904 37 305 1.6 4.8 0.00 0.00 0.00 44 1009.4
20260905204404 38 190 1.6 4.8 0.00 0.00 0.00 44 1009.4
20260905203904 38 81 1.6 3.2 0.00 0.00 0.00 44 1009.5
20260905203403 38 333 0.0 1.6 0.00 0.00 0.00 44 1009.6
20260905202904 37 309 1.6 1.6 0.00 0.00 0.00 44 1009.7
20260905202403 37 41 0.0 3.2 0.00 0.00 0.00 45 1009.6
20260905201904 37 25 1.6 4.8 0.00 0.00 0.00 44 1009.6
20260905201403 37 202 0.0 3.2 0.00 0.00 0.00 45 1009.6
20260905200903 37 273 0.0 1.6 0.00 0.00 0.00 44 1009.7
20260905200403 37 5 1.6 3.2 0.00 0.00 0.00 45 1009.8
20260905195903 36 289 1.6 4.8 0.00 0.00 0.00 49 1010.0
20260905195403 36 182 1.6 3.2 0.00 0.00 0.00 48 1010.0
20260905194404 36 189 0.0 1.6 0.00 0.00 0.00 49 1010.2
20260905193903 37 182 0.0 3.2 0.00 0.00 0.00 48 1010.2
20260905193403 37 175 1.6 4.8 0.00 0.00 0.00 48 1010.3
20260905192903 37 60 1.6 3.2 0.00 0.00 0.00 47 1010.4
20260905192403 37 88 1.6 3.2 0.00 0.00 0.00 46 1010.5
20260905191903 37 236 1.6 3.2 0.00 0.00 0.00 48 1010.6
20260905191404 36 359 0.0 4.8 0.00 0.00 0.00 48 1010.5
20260905190903 36 232 0.0 1.6 0.00 0.00 0.00 49 1010.5
20260905190403 36 339 0.0 1.6 0.00 0.00 0.00 49 1010.7
20260905185403 36 215 1.6 4.8 0.00 0.00 0.00 48 1010.8
20260905184903 36 356 0.0 3.2 0.00 0.00 0.00 47 1010.7
20260905183404 36 190 0.0 3.2 0.00 0.00 0.00 51 1010.7
20260905182904 36 43 1.6 4.8 0.00 0.00 0.00 51 1010.9
20260905182403 36 285 0.0 4.8 0.00 0.00 0.00 51 1011.1
20260905181903 36 319 1.6 4.8 0.00 0.00 0.00 51 1011.1
20260905181404 36 174 1.6 3.2 0.00 0.00 0.00 52 1011.2
20260905180403 35 275 1.6 4.8 0.00 0.00 0.00 52 1011.4
20260905175903 35 9 0.0 4.8 0.00 0.00 0.00 54 1011.4
20260905175404 35 237 1.6 4.8 0.00 0.00 0.00 53 1011.6
20260905174903 35 262 0.0 1.6 0.00 0.00 0.00 54 1011.7
20260905174404 35 74 1.6 9.7 0.00 0.00 0.00 52 1011.8
20260905173404 35 190 0.0 3.2 0.00 0.00 0.00 57 1011.9
20260905172904 34 182 0.0 3.2 0.00 0.00 0.00 55 1011.9
20260905172404 35 181 1.6 4.8 0.00 0.00 0.00 55 1012.0
20260905170403 34 347 1.6 4.8 0.00 0.00 0.00 56 1011.9
20260905165903 33 302 0.0 3.2 0.00 0.00 0.00 56 1011.9
20260905165404 33 183 1.6 4.8 0.00 0.00 0.00 56 1012.0
20260905164904 34 128 1.6 3.2 0.00 0.00 0.00 56 1012.1
20260905164403 34 278 1.6 4.8 0.00 0.00 0.00 57 1012.1
20260905163904 34 236 1.6 3.2 0.00 0.00 0.00 58 1012.1
20260905162904 33 223 1.6 9.7 0.00 0.00 0.00 58 1012.2
20260905162403 33 197 1.6 11.3 0.00 0.00 0.00 60 1012.3
20260905161904 33 227 1.6 9.7 0.00 0.00 0.00 59 1012.3
20260905161403 33 328 1.6 4.8 0.00 0.00 0.00 57 1012.3
20260905160904 33 71 0.0 4.8 0.00 0.00 0.00 59 1012.4
20260905160403 33 53 1.6 4.8 0.00 0.00 0.00 59 1012.4
20260905155403 33 200 0.0 3.2 0.00 0.00 0.00 58 1012.5
20260905154903 34 150 1.6 4.8 0.00 0.00 0.00 58 1012.5
20260905154404 34 342 1.6 4.8 0.00 0.00 0.00 58 1012.6
20260905153903 34 271 1.6 4.8 0.00 0.00 0.00 60 1012.7
20260905152903 33 204 0.0 3.2 0.00 0.00 0.00 60 1012.5
20260905152403 33 201 0.0 3.2 0.00 0.00 0.00 61 1012.5
20260905151903 33 57 0.0 3.2 0.00 0.00 0.00 61 1012.5
20260905151403 33 41 1.6 3.2 0.00 0.00 0.00 61 1012.5
20260905150904 33 76 0.0 3.2 0.00 0.00 0.00 60 1012.5
20260905150403 33 125 0.0 3.2 0.00 0.00 0.00 61 1012.6
20260905145904 33 66 0.0 3.2 0.00 0.00 0.00 62 1012.7
20260905145403 33 45 0.0 1.6 0.00 0.00 0.00 65 1012.6
20260905144903 32 104 1.6 3.2 0.00 0.00 0.00 65 1012.6
20260905144404 32 264 1.6 4.8 0.00 0.00 0.00 67 1012.6
20260905143904 32 242 0.0 1.6 0.00 0.00 0.00 70 1012.6
20260905143403 31 283 0.0 1.6 0.00 0.00 0.00 70 1012.6
20260905142904 31 201 0.0 1.6 0.00 0.00 0.00 71 1012.6
20260905142404 31 204 0.0 1.6 0.00 0.00 0.00 73 1012.5
20260905141904 30 207 0.0 1.6 0.00 0.00 0.00 75 1012.5
20260905140904 30 229 0.0 3.2 0.00 0.00 0.00 77 1012.6
20260905135904 28 205 0.0 0.0 0.00 0.00 0.00 81 1012.7
20260905134904 27 206 0.0 3.2 0.00 0.00 0.00 84 1012.8
20260905134403 27 205 0.0 0.0 0.00 0.00 0.00 84 1012.8
20260905133904 26 205 0.0 0.0 0.00 0.00 0.00 84 1012.8
20260905132903 26 205 0.0 0.0 0.00 0.00 0.00 83 1012.9
20260905132404 25 205 0.0 0.0 0.00 0.00 0.00 82 1012.9
20260905131904 25 205 0.0 0.0 0.00 0.00 0.00 79 1012.9
20260905131404 25 204 0.0 0.0 0.00 0.00 0.00 74 1012.9
20260905130903 25 204 0.0 0.0 0.00 0.00 0.00 73 1013.0
20260905130403 24 204 0.0 0.0 0.00 0.00 0.00 70 1013.0
20260905125904 24 204 0.0 0.0 0.00 0.00 0.00 71 1013.1
20260905125403 23 204 0.0 0.0 0.00 0.00 0.00 70 1013.1
20260905124904 23 204 0.0 0.0 0.00 0.00 0.00 68 1013.1
20260905124404 23 204 0.0 0.0 0.00 0.00 0.00 67 1013.1
20260905123903 23 204 0.0 0.0 0.00 0.00 0.00 68 1013.1
20260905123404 23 204 0.0 0.0 0.00 0.00 0.00 67 1013.1
20260905122404 23 204 0.0 0.0 0.00 0.00 0.00 65 1013.2
20260905121903 22 204 0.0 0.0 0.00 0.00 0.00 66 1013.1